owner,sensor,date,latitude,longitude,vertical_datum,mass_concentration_of_oxygen_in_sea_water,qcFlag 
DISL,ioos:station:DISL:PPTA:1,2015-07-01T00:00:00Z,30.2791,-87.5561,0.956,7.68,1111122 
DISL,ioos:station:DISL:PPTA:1,2015-07-01T00:30:00Z,30.2791,-87.5561,0.936,7.37,1111122 
DISL,ioos:station:DISL:PPTA:1,2015-07-01T01:00:00Z,30.2791,-87.5561,0.975,7.27,1111122 
DISL,ioos:station:DISL:PPTA:1,2015-07-01T01:30:00Z,30.2791,-87.5561,0.955,6.96,1111122 
DISL,ioos:station:DISL:PPTA:1,2015-07-01T02:00:00Z,30.2791,-87.5561,0.966,6.98,1111122 
DISL,ioos:station:DISL:PPTA:1,2015-07-01T02:30:00Z,30.2791,-87.5561,1.005,6.7,1111122 
DISL,ioos:station:DISL:PPTA:1,2015-07-01T03:00:00Z,30.2791,-87.5561,0.976,6.91,1111122 
DISL,ioos:station:DISL:PPTA:1,2015-07-01T03:30:00Z,30.2791,-87.5561,1.07,6.72,1111122 
DISL,ioos:station:DISL:PPTA:1,2015-07-01T04:00:00Z,30.2791,-87.5561,0.921,6.62,1111122 
DISL,ioos:station:DISL:PPTA:1,2015-07-01T04:30:00Z,30.2791,-87.5561,1.035,6.56,1111122 
DISL,ioos:station:DISL:PPTA:1,2015-07-01T05:00:00Z,30.2791,-87.5561,1.08,6.4,1111122 
DISL,ioos:station:DISL:PPTA:1,2015-07-01T05:30:00Z,30.2791,-87.5561,1.043,6.18,1111122 
DISL,ioos:station:DISL:PPTA:1,2015-07-01T06:00:00Z,30.2791,-87.5561,1.004,6.14,1111122 
DISL,ioos:station:DISL:PPTA:1,2015-07-01T06:30:00Z,30.2791,-87.5561,1.04,5.81,1111122 
DISL,ioos:station:DISL:PPTA:1,2015-07-01T07:00:00Z,30.2791,-87.5561,1.03,5.85,1111122 
DISL,ioos:station:DISL:PPTA:1,2015-07-01T07:30:00Z,30.2791,-87.5561,1.032,5.66,1111122 
DISL,ioos:station:DISL:PPTA:1,2015-07-01T08:00:00Z,30.2791,-87.5561,1.106,5.6,1111122 
DISL,ioos:station:DISL:PPTA:1,2015-07-01T08:30:00Z,30.2791,-87.5561,1.084,5.79,1111122 
DISL,ioos:station:DISL:PPTA:1,2015-07-01T09:00:00Z,30.2791,-87.5561,1.085,5.48,1111122 
DISL,ioos:station:DISL:PPTA:1,2015-07-01T09:30:00Z,30.2791,-87.5561,1.136,5.25,1111122 
DISL,ioos:station:DISL:PPTA:1,2015-07-01T10:00:00Z,30.2791,-87.5561,1.165,5.65,1111122 
DISL,ioos:station:DISL:PPTA:1,2015-07-01T10:30:00Z,30.2791,-87.5561,1.184,5.33,1111122 
DISL,ioos:station:DISL:PPTA:1,2015-07-01T11:00:00Z,30.2791,-87.5561,1.236,5.46,1111122 
DISL,ioos:station:DISL:PPTA:1,2015-07-01T11:30:00Z,30.2791,-87.5561,1.28,5.8,1111122 
DISL,ioos:station:DISL:PPTA:1,2015-07-01T12:00:00Z,30.2791,-87.5561,1.276,5.66,1111122 
DISL,ioos:station:DISL:PPTA:1,2015-07-01T12:30:00Z,30.2791,-87.5561,1.272,5.7,1111122 
DISL,ioos:station:DISL:PPTA:1,2015-07-01T13:00:00Z,30.2791,-87.5561,1.285,5.76,1111122 
DISL,ioos:station:DISL:PPTA:1,2015-07-01T13:30:00Z,30.2791,-87.5561,1.293,5.84,1111122 
DISL,ioos:station:DISL:PPTA:1,2015-07-01T14:00:00Z,30.2791,-87.5561,1.314,6.14,1111122 
DISL,ioos:station:DISL:PPTA:1,2015-07-01T14:30:00Z,30.2791,-87.5561,1.327,6.16,1111122 
DISL,ioos:station:DISL:PPTA:1,2015-07-01T15:00:00Z,30.2791,-87.5561,1.294,6.11,1111122 
DISL,ioos:station:DISL:PPTA:1,2015-07-01T15:30:00Z,30.2791,-87.5561,1.312,6.53,1111122 
DISL,ioos:station:DISL:PPTA:1,2015-07-01T16:00:00Z,30.2791,-87.5561,1.302,6.66,1111122 
DISL,ioos:station:DISL:PPTA:1,2015-07-01T16:30:00Z,30.2791,-87.5561,1.275,7.07,1111122 
DISL,ioos:station:DISL:PPTA:1,2015-07-01T17:00:00Z,30.2791,-87.5561,1.255,7.03,1111122 
DISL,ioos:station:DISL:PPTA:1,2015-07-01T17:30:00Z,30.2791,-87.5561,1.27,7.21,1111122 
DISL,ioos:station:DISL:PPTA:1,2015-07-01T18:00:00Z,30.2791,-87.5561,1.222,7.72,1111122 
DISL,ioos:station:DISL:PPTA:1,2015-07-01T18:30:00Z,30.2791,-87.5561,1.192,7.8,1111122 
DISL,ioos:station:DISL:PPTA:1,2015-07-01T19:00:00Z,30.2791,-87.5561,1.162,7.73,1111122 
DISL,ioos:station:DISL:PPTA:1,2015-07-01T19:30:00Z,30.2791,-87.5561,1.113,8.3,1111122 
DISL,ioos:station:DISL:PPTA:1,2015-07-01T20:00:00Z,30.2791,-87.5561,1.101,8.66,1111122 
DISL,ioos:station:DISL:PPTA:1,2015-07-01T20:30:00Z,30.2791,-87.5561,1.064,8.47,1111122 
DISL,ioos:station:DISL:PPTA:1,2015-07-01T21:00:00Z,30.2791,-87.5561,1.053,8.5,1111122 
DISL,ioos:station:DISL:PPTA:1,2015-07-01T21:30:00Z,30.2791,-87.5561,1.038,8.47,1111122 
DISL,ioos:station:DISL:PPTA:1,2015-07-01T22:00:00Z,30.2791,-87.5561,1.027,8.37,1111122 
DISL,ioos:station:DISL:PPTA:1,2015-07-01T22:30:00Z,30.2791,-87.5561,1.021,8.4,1111122 
DISL,ioos:station:DISL:PPTA:1,2015-07-01T23:00:00Z,30.2791,-87.5561,0.998,8.26,1111122 
DISL,ioos:station:DISL:PPTA:1,2015-07-01T23:30:00Z,30.2791,-87.5561,0.977,8.26,1111122 
DISL,ioos:station:DISL:PPTA:1,2015-07-02T00:00:00Z,30.2791,-87.5561,0.938,7.85,1111122 
DISL,ioos:station:DISL:PPTA:1,2015-07-02T00:30:00Z,30.2791,-87.5561,0.975,7.71,1111122 
DISL,ioos:station:DISL:PPTA:1,2015-07-02T01:00:00Z,30.2791,-87.5561,0.976,7.6,1111122 
DISL,ioos:station:DISL:PPTA:1,2015-07-02T01:30:00Z,30.2791,-87.5561,0.985,7.33,1111122 
DISL,ioos:station:DISL:PPTA:1,2015-07-02T02:00:00Z,30.2791,-87.5561,0.989,7.2,1111122 
DISL,ioos:station:DISL:PPTA:1,2015-07-02T02:30:00Z,30.2791,-87.5561,0.999,7.2,1111122 
DISL,ioos:station:DISL:PPTA:1,2015-07-02T03:00:00Z,30.2791,-87.5561,0.999,7.08,1111122 
DISL,ioos:station:DISL:PPTA:1,2015-07-02T03:30:00Z,30.2791,-87.5561,1.022,6.77,1111122 
DISL,ioos:station:DISL:PPTA:1,2015-07-02T04:00:00Z,30.2791,-87.5561,1.016,6.58,1111122 
DISL,ioos:station:DISL:PPTA:1,2015-07-02T04:30:00Z,30.2791,-87.5561,0.998,6.33,1111122 
DISL,ioos:station:DISL:PPTA:1,2015-07-02T05:00:00Z,30.2791,-87.5561,1.057,6.14,1111122 
DISL,ioos:station:DISL:PPTA:1,2015-07-02T05:30:00Z,30.2791,-87.5561,1.073,6.34,1111122 
DISL,ioos:station:DISL:PPTA:1,2015-07-02T06:00:00Z,30.2791,-87.5561,1.064,6.04,1111122 
DISL,ioos:station:DISL:PPTA:1,2015-07-02T06:30:00Z,30.2791,-87.5561,1.078,5.68,1111122 
DISL,ioos:station:DISL:PPTA:1,2015-07-02T07:00:00Z,30.2791,-87.5561,1.09,5.71,1111122 
DISL,ioos:station:DISL:PPTA:1,2015-07-02T07:30:00Z,30.2791,-87.5561,1.112,5.1,1111122 
DISL,ioos:station:DISL:PPTA:1,2015-07-02T08:00:00Z,30.2791,-87.5561,1.106,5.02,1111122 
DISL,ioos:station:DISL:PPTA:1,2015-07-02T08:30:00Z,30.2791,-87.5561,1.123,4.99,1111122 
DISL,ioos:station:DISL:PPTA:1,2015-07-02T09:00:00Z,30.2791,-87.5561,1.143,4.99,1111122 
DISL,ioos:station:DISL:PPTA:1,2015-07-02T09:30:00Z,30.2791,-87.5561,1.174,4.81,1111122 
DISL,ioos:station:DISL:PPTA:1,2015-07-02T10:00:00Z,30.2791,-87.5561,1.191,4.78,1111122 
DISL,ioos:station:DISL:PPTA:1,2015-07-02T10:30:00Z,30.2791,-87.5561,1.219,4.51,1111122 
DISL,ioos:station:DISL:PPTA:1,2015-07-02T11:00:00Z,30.2791,-87.5561,1.241,4.64,1111122 
DISL,ioos:station:DISL:PPTA:1,2015-07-02T11:30:00Z,30.2791,-87.5561,1.322,4.7,1111122 
DISL,ioos:station:DISL:PPTA:1,2015-07-02T12:00:00Z,30.2791,-87.5561,1.323,5.0,1111122 
DISL,ioos:station:DISL:PPTA:1,2015-07-02T12:30:00Z,30.2791,-87.5561,1.262,4.81,1111122 
DISL,ioos:station:DISL:PPTA:1,2015-07-02T13:00:00Z,30.2791,-87.5561,1.333,5.13,1111122 
DISL,ioos:station:DISL:PPTA:1,2015-07-02T13:30:00Z,30.2791,-87.5561,1.374,5.21,1111122 
DISL,ioos:station:DISL:PPTA:1,2015-07-02T14:00:00Z,30.2791,-87.5561,1.35,5.08,1111122 
DISL,ioos:station:DISL:PPTA:1,2015-07-02T14:30:00Z,30.2791,-87.5561,1.388,5.66,1111122 
DISL,ioos:station:DISL:PPTA:1,2015-07-02T15:00:00Z,30.2791,-87.5561,1.338,5.59,1111122 
DISL,ioos:station:DISL:PPTA:1,2015-07-02T15:30:00Z,30.2791,-87.5561,1.33,5.55,1111122 
DISL,ioos:station:DISL:PPTA:1,2015-07-02T16:00:00Z,30.2791,-87.5561,1.344,5.97,1111122 
DISL,ioos:station:DISL:PPTA:1,2015-07-02T16:30:00Z,30.2791,-87.5561,1.351,6.49,1111122 
DISL,ioos:station:DISL:PPTA:1,2015-07-02T17:00:00Z,30.2791,-87.5561,1.352,6.27,1111122 
DISL,ioos:station:DISL:PPTA:1,2015-07-02T17:30:00Z,30.2791,-87.5561,1.335,6.35,1111122 
DISL,ioos:station:DISL:PPTA:1,2015-07-02T18:00:00Z,30.2791,-87.5561,1.304,6.43,1111122 
DISL,ioos:station:DISL:PPTA:1,2015-07-02T18:30:00Z,30.2791,-87.5561,1.284,6.71,1111122 
DISL,ioos:station:DISL:PPTA:1,2015-07-02T19:00:00Z,30.2791,-87.5561,1.231,7.03,1111122 
DISL,ioos:station:DISL:PPTA:1,2015-07-02T19:30:00Z,30.2791,-87.5561,1.212,7.33,1111122 
DISL,ioos:station:DISL:PPTA:1,2015-07-02T20:00:00Z,30.2791,-87.5561,1.183,7.74,1111122 
DISL,ioos:station:DISL:PPTA:1,2015-07-02T20:30:00Z,30.2791,-87.5561,1.142,7.72,1111122 
DISL,ioos:station:DISL:PPTA:1,2015-07-02T21:00:00Z,30.2791,-87.5561,1.153,7.49,1111122 
DISL,ioos:station:DISL:PPTA:1,2015-07-02T21:30:00Z,30.2791,-87.5561,1.113,7.55,1111122 
DISL,ioos:station:DISL:PPTA:1,2015-07-02T22:00:00Z,30.2791,-87.5561,1.071,7.69,1111122 
DISL,ioos:station:DISL:PPTA:1,2015-07-02T22:30:00Z,30.2791,-87.5561,1.052,7.64,1111122 
DISL,ioos:station:DISL:PPTA:1,2015-07-02T23:00:00Z,30.2791,-87.5561,1.035,7.59,1111122 
DISL,ioos:station:DISL:PPTA:1,2015-07-02T23:30:00Z,30.2791,-87.5561,1.033,7.48,1111122 
DISL,ioos:station:DISL:PPTA:1,2015-07-03T00:00:00Z,30.2791,-87.5561,1.025,7.32,1111122 
DISL,ioos:station:DISL:PPTA:1,2015-07-03T00:30:00Z,30.2791,-87.5561,1.018,7.2,1111122 
DISL,ioos:station:DISL:PPTA:1,2015-07-03T01:00:00Z,30.2791,-87.5561,1.017,7.05,1111122 
DISL,ioos:station:DISL:PPTA:1,2015-07-03T01:30:00Z,30.2791,-87.5561,1.013,7.14,1111122 
DISL,ioos:station:DISL:PPTA:1,2015-07-03T02:00:00Z,30.2791,-87.5561,1.007,6.91,1111122 
DISL,ioos:station:DISL:PPTA:1,2015-07-03T02:30:00Z,30.2791,-87.5561,1.009,6.89,1111122 
DISL,ioos:station:DISL:PPTA:1,2015-07-03T03:00:00Z,30.2791,-87.5561,1.017,6.87,1111122 
DISL,ioos:station:DISL:PPTA:1,2015-07-03T03:30:00Z,30.2791,-87.5561,1.026,6.35,1111122 
DISL,ioos:station:DISL:PPTA:1,2015-07-03T04:00:00Z,30.2791,-87.5561,1.029,5.84,1111122 
DISL,ioos:station:DISL:PPTA:1,2015-07-03T04:30:00Z,30.2791,-87.5561,1.043,5.7,1111122 
DISL,ioos:station:DISL:PPTA:1,2015-07-03T05:00:00Z,30.2791,-87.5561,1.057,5.6,1111122 
DISL,ioos:station:DISL:PPTA:1,2015-07-03T05:30:00Z,30.2791,-87.5561,1.042,5.02,1111122 
DISL,ioos:station:DISL:PPTA:1,2015-07-03T06:00:00Z,30.2791,-87.5561,1.05,5.09,1111122 
DISL,ioos:station:DISL:PPTA:1,2015-07-03T06:30:00Z,30.2791,-87.5561,1.075,5.42,1111122 
DISL,ioos:station:DISL:PPTA:1,2015-07-03T07:00:00Z,30.2791,-87.5561,1.079,5.72,1111122 
DISL,ioos:station:DISL:PPTA:1,2015-07-03T07:30:00Z,30.2791,-87.5561,1.11,5.04,1111122 
DISL,ioos:station:DISL:PPTA:1,2015-07-03T08:00:00Z,30.2791,-87.5561,1.101,4.85,1111122 
DISL,ioos:station:DISL:PPTA:1,2015-07-03T08:30:00Z,30.2791,-87.5561,1.085,4.66,1111122 
DISL,ioos:station:DISL:PPTA:1,2015-07-03T09:00:00Z,30.2791,-87.5561,1.116,4.71,1111122 
DISL,ioos:station:DISL:PPTA:1,2015-07-03T09:30:00Z,30.2791,-87.5561,1.14,4.63,1111122 
DISL,ioos:station:DISL:PPTA:1,2015-07-03T10:00:00Z,30.2791,-87.5561,1.179,4.96,1111122 
DISL,ioos:station:DISL:PPTA:1,2015-07-03T10:30:00Z,30.2791,-87.5561,1.188,4.62,1111122 
DISL,ioos:station:DISL:PPTA:1,2015-07-03T11:00:00Z,30.2791,-87.5561,1.204,4.63,1111122 
DISL,ioos:station:DISL:PPTA:1,2015-07-03T11:30:00Z,30.2791,-87.5561,1.244,4.75,1111122 
DISL,ioos:station:DISL:PPTA:1,2015-07-03T12:00:00Z,30.2791,-87.5561,1.259,4.76,1111122 
DISL,ioos:station:DISL:PPTA:1,2015-07-03T12:30:00Z,30.2791,-87.5561,1.292,4.69,1111122 
DISL,ioos:station:DISL:PPTA:1,2015-07-03T13:00:00Z,30.2791,-87.5561,1.336,4.53,1111122 
DISL,ioos:station:DISL:PPTA:1,2015-07-03T13:30:00Z,30.2791,-87.5561,1.351,4.69,1111122 
DISL,ioos:station:DISL:PPTA:1,2015-07-03T14:00:00Z,30.2791,-87.5561,1.364,4.59,1111122 
DISL,ioos:station:DISL:PPTA:1,2015-07-03T14:30:00Z,30.2791,-87.5561,1.359,4.89,1111122 
DISL,ioos:station:DISL:PPTA:1,2015-07-03T15:00:00Z,30.2791,-87.5561,1.369,5.51,1111122 
DISL,ioos:station:DISL:PPTA:1,2015-07-03T15:30:00Z,30.2791,-87.5561,1.379,5.74,1111122 
DISL,ioos:station:DISL:PPTA:1,2015-07-03T16:00:00Z,30.2791,-87.5561,1.369,5.8,1111122 
DISL,ioos:station:DISL:PPTA:1,2015-07-03T16:30:00Z,30.2791,-87.5561,1.375,5.85,1111122 
DISL,ioos:station:DISL:PPTA:1,2015-07-03T17:00:00Z,30.2791,-87.5561,1.367,5.81,1111122 
DISL,ioos:station:DISL:PPTA:1,2015-07-03T17:30:00Z,30.2791,-87.5561,1.367,6.02,1111122 
DISL,ioos:station:DISL:PPTA:1,2015-07-03T18:00:00Z,30.2791,-87.5561,1.367,5.97,1111122 
DISL,ioos:station:DISL:PPTA:1,2015-07-03T18:30:00Z,30.2791,-87.5561,1.347,6.33,1111122 
DISL,ioos:station:DISL:PPTA:1,2015-07-03T19:00:00Z,30.2791,-87.5561,1.34,6.48,1111122 
DISL,ioos:station:DISL:PPTA:1,2015-07-03T19:30:00Z,30.2791,-87.5561,1.295,6.45,1111122 
DISL,ioos:station:DISL:PPTA:1,2015-07-03T20:00:00Z,30.2791,-87.5561,1.267,6.74,1111122 
DISL,ioos:station:DISL:PPTA:1,2015-07-03T20:30:00Z,30.2791,-87.5561,1.23,7.05,1111122 
DISL,ioos:station:DISL:PPTA:1,2015-07-03T21:00:00Z,30.2791,-87.5561,1.179,7.33,1111122 
DISL,ioos:station:DISL:PPTA:1,2015-07-03T21:30:00Z,30.2791,-87.5561,1.166,6.62,1111122 
DISL,ioos:station:DISL:PPTA:1,2015-07-03T22:00:00Z,30.2791,-87.5561,1.168,7.19,1111122 
DISL,ioos:station:DISL:PPTA:1,2015-07-03T22:30:00Z,30.2791,-87.5561,1.143,7.07,1111122 
DISL,ioos:station:DISL:PPTA:1,2015-07-03T23:00:00Z,30.2791,-87.5561,1.137,6.6,1111122 
DISL,ioos:station:DISL:PPTA:1,2015-07-03T23:30:00Z,30.2791,-87.5561,1.115,6.34,1111122 
DISL,ioos:station:DISL:PPTA:1,2015-07-04T00:00:00Z,30.2791,-87.5561,1.123,6.12,1111122 
DISL,ioos:station:DISL:PPTA:1,2015-07-04T00:30:00Z,30.2791,-87.5561,1.102,6.76,1111122 
DISL,ioos:station:DISL:PPTA:1,2015-07-04T01:00:00Z,30.2791,-87.5561,1.091,6.75,1111122 
DISL,ioos:station:DISL:PPTA:1,2015-07-04T01:30:00Z,30.2791,-87.5561,1.084,6.67,1111122 
DISL,ioos:station:DISL:PPTA:1,2015-07-04T02:00:00Z,30.2791,-87.5561,1.077,6.74,1111122 
DISL,ioos:station:DISL:PPTA:1,2015-07-04T02:30:00Z,30.2791,-87.5561,1.057,6.65,1111122 
DISL,ioos:station:DISL:PPTA:1,2015-07-04T03:00:00Z,30.2791,-87.5561,1.062,6.46,1111122 
DISL,ioos:station:DISL:PPTA:1,2015-07-04T03:30:00Z,30.2791,-87.5561,1.067,6.42,1111122 
DISL,ioos:station:DISL:PPTA:1,2015-07-04T04:00:00Z,30.2791,-87.5561,1.075,6.05,1111122 
DISL,ioos:station:DISL:PPTA:1,2015-07-04T04:30:00Z,30.2791,-87.5561,1.089,5.77,1111122 
DISL,ioos:station:DISL:PPTA:1,2015-07-04T05:00:00Z,30.2791,-87.5561,1.074,5.44,1111122 
DISL,ioos:station:DISL:PPTA:1,2015-07-04T05:30:00Z,30.2791,-87.5561,1.083,5.92,1111122 
DISL,ioos:station:DISL:PPTA:1,2015-07-04T06:00:00Z,30.2791,-87.5561,1.079,5.12,1111122 
DISL,ioos:station:DISL:PPTA:1,2015-07-04T06:30:00Z,30.2791,-87.5561,1.102,5.55,1111122 
DISL,ioos:station:DISL:PPTA:1,2015-07-04T07:00:00Z,30.2791,-87.5561,1.114,5.15,1111122 
DISL,ioos:station:DISL:PPTA:1,2015-07-04T07:30:00Z,30.2791,-87.5561,1.119,5.32,1111122 
DISL,ioos:station:DISL:PPTA:1,2015-07-04T08:00:00Z,30.2791,-87.5561,1.111,5.18,1111122 
DISL,ioos:station:DISL:PPTA:1,2015-07-04T08:30:00Z,30.2791,-87.5561,1.127,5.42,1111122 
DISL,ioos:station:DISL:PPTA:1,2015-07-04T09:00:00Z,30.2791,-87.5561,1.127,4.75,1111122 
DISL,ioos:station:DISL:PPTA:1,2015-07-04T09:30:00Z,30.2791,-87.5561,1.148,4.92,1111122 
DISL,ioos:station:DISL:PPTA:1,2015-07-04T10:00:00Z,30.2791,-87.5561,1.151,5.02,1111122 
DISL,ioos:station:DISL:PPTA:1,2015-07-04T10:30:00Z,30.2791,-87.5561,1.16,4.36,1111122 
DISL,ioos:station:DISL:PPTA:1,2015-07-04T11:00:00Z,30.2791,-87.5561,1.175,4.82,1111122 
DISL,ioos:station:DISL:PPTA:1,2015-07-04T11:30:00Z,30.2791,-87.5561,1.198,4.48,1111122 
DISL,ioos:station:DISL:PPTA:1,2015-07-04T12:00:00Z,30.2791,-87.5561,1.229,4.79,1111122 
DISL,ioos:station:DISL:PPTA:1,2015-07-04T12:30:00Z,30.2791,-87.5561,1.243,5.0,1111122 
DISL,ioos:station:DISL:PPTA:1,2015-07-04T13:00:00Z,30.2791,-87.5561,1.269,5.22,1111122 
DISL,ioos:station:DISL:PPTA:1,2015-07-04T13:30:00Z,30.2791,-87.5561,1.292,5.13,1111122 
DISL,ioos:station:DISL:PPTA:1,2015-07-04T14:00:00Z,30.2791,-87.5561,1.317,5.6,1111122 
DISL,ioos:station:DISL:PPTA:1,2015-07-04T14:30:00Z,30.2791,-87.5561,1.34,5.62,1111122 
DISL,ioos:station:DISL:PPTA:1,2015-07-04T15:00:00Z,30.2791,-87.5561,1.33,5.8,1111122 
DISL,ioos:station:DISL:PPTA:1,2015-07-04T15:30:00Z,30.2791,-87.5561,1.34,6.18,1111122 
DISL,ioos:station:DISL:PPTA:1,2015-07-04T16:00:00Z,30.2791,-87.5561,1.348,6.41,1111122 
DISL,ioos:station:DISL:PPTA:1,2015-07-04T16:30:00Z,30.2791,-87.5561,1.333,6.53,1111122 
DISL,ioos:station:DISL:PPTA:1,2015-07-04T17:00:00Z,30.2791,-87.5561,1.342,6.51,1111122 
DISL,ioos:station:DISL:PPTA:1,2015-07-04T17:30:00Z,30.2791,-87.5561,1.349,6.62,1111122 
DISL,ioos:station:DISL:PPTA:1,2015-07-04T18:00:00Z,30.2791,-87.5561,1.345,6.56,1111122 
DISL,ioos:station:DISL:PPTA:1,2015-07-04T18:30:00Z,30.2791,-87.5561,1.354,6.9,1111122 
DISL,ioos:station:DISL:PPTA:1,2015-07-04T19:00:00Z,30.2791,-87.5561,1.313,6.74,1111122 
DISL,ioos:station:DISL:PPTA:1,2015-07-04T19:30:00Z,30.2791,-87.5561,1.318,7.11,1111122 
DISL,ioos:station:DISL:PPTA:1,2015-07-04T20:00:00Z,30.2791,-87.5561,1.285,6.61,1111122 
DISL,ioos:station:DISL:PPTA:1,2015-07-04T20:30:00Z,30.2791,-87.5561,1.253,6.26,1111122 
DISL,ioos:station:DISL:PPTA:1,2015-07-04T21:00:00Z,30.2791,-87.5561,1.237,5.98,1111122 
DISL,ioos:station:DISL:PPTA:1,2015-07-04T21:30:00Z,30.2791,-87.5561,1.186,6.38,1111122 
DISL,ioos:station:DISL:PPTA:1,2015-07-04T22:00:00Z,30.2791,-87.5561,1.177,6.13,1111122 
DISL,ioos:station:DISL:PPTA:1,2015-07-04T22:30:00Z,30.2791,-87.5561,1.149,6.13,1111122 
DISL,ioos:station:DISL:PPTA:1,2015-07-04T23:00:00Z,30.2791,-87.5561,1.133,6.36,1111122 
DISL,ioos:station:DISL:PPTA:1,2015-07-04T23:30:00Z,30.2791,-87.5561,1.119,6.02,1111122 
DISL,ioos:station:DISL:PPTA:1,2015-07-05T00:00:00Z,30.2791,-87.5561,1.101,6.01,1111122 
DISL,ioos:station:DISL:PPTA:1,2015-07-05T00:30:00Z,30.2791,-87.5561,1.099,5.95,1111122 
DISL,ioos:station:DISL:PPTA:1,2015-07-05T01:00:00Z,30.2791,-87.5561,1.095,6.86,1111122 
DISL,ioos:station:DISL:PPTA:1,2015-07-05T01:30:00Z,30.2791,-87.5561,1.104,6.68,1111122 
DISL,ioos:station:DISL:PPTA:1,2015-07-05T02:00:00Z,30.2791,-87.5561,1.089,6.74,1111122 
DISL,ioos:station:DISL:PPTA:1,2015-07-05T02:30:00Z,30.2791,-87.5561,1.078,6.63,1111122 
DISL,ioos:station:DISL:PPTA:1,2015-07-05T03:00:00Z,30.2791,-87.5561,1.078,6.6,1111122 
DISL,ioos:station:DISL:PPTA:1,2015-07-05T03:30:00Z,30.2791,-87.5561,1.087,6.28,1111122 
DISL,ioos:station:DISL:PPTA:1,2015-07-05T04:00:00Z,30.2791,-87.5561,1.1,6.22,1111122 
DISL,ioos:station:DISL:PPTA:1,2015-07-05T04:30:00Z,30.2791,-87.5561,1.087,6.08,1111122 
DISL,ioos:station:DISL:PPTA:1,2015-07-05T05:00:00Z,30.2791,-87.5561,1.072,5.74,1111122 
DISL,ioos:station:DISL:PPTA:1,2015-07-05T05:30:00Z,30.2791,-87.5561,1.087,5.69,1111122 
DISL,ioos:station:DISL:PPTA:1,2015-07-05T06:00:00Z,30.2791,-87.5561,1.079,4.99,1111122 
DISL,ioos:station:DISL:PPTA:1,2015-07-05T06:30:00Z,30.2791,-87.5561,1.117,5.68,1111122 
DISL,ioos:station:DISL:PPTA:1,2015-07-05T07:00:00Z,30.2791,-87.5561,1.12,4.8,1111122 
DISL,ioos:station:DISL:PPTA:1,2015-07-05T07:30:00Z,30.2791,-87.5561,1.139,5.26,1111122 
DISL,ioos:station:DISL:PPTA:1,2015-07-05T08:00:00Z,30.2791,-87.5561,1.134,5.42,1111122 
DISL,ioos:station:DISL:PPTA:1,2015-07-05T08:30:00Z,30.2791,-87.5561,1.114,4.61,1111122 
DISL,ioos:station:DISL:PPTA:1,2015-07-05T09:00:00Z,30.2791,-87.5561,1.133,4.96,1111122 
DISL,ioos:station:DISL:PPTA:1,2015-07-05T09:30:00Z,30.2791,-87.5561,1.119,4.25,1111122 
DISL,ioos:station:DISL:PPTA:1,2015-07-05T10:00:00Z,30.2791,-87.5561,1.129,5.55,1111122 
DISL,ioos:station:DISL:PPTA:1,2015-07-05T10:30:00Z,30.2791,-87.5561,1.13,5.67,1111122 
DISL,ioos:station:DISL:PPTA:1,2015-07-05T11:00:00Z,30.2791,-87.5561,1.165,5.22,1111122 
DISL,ioos:station:DISL:PPTA:1,2015-07-05T11:30:00Z,30.2791,-87.5561,1.188,6.2,1111122 
DISL,ioos:station:DISL:PPTA:1,2015-07-05T12:00:00Z,30.2791,-87.5561,1.178,6.22,1111122 
DISL,ioos:station:DISL:PPTA:1,2015-07-05T12:30:00Z,30.2791,-87.5561,1.195,5.72,1111122 
DISL,ioos:station:DISL:PPTA:1,2015-07-05T13:00:00Z,30.2791,-87.5561,1.243,5.97,1111122 
DISL,ioos:station:DISL:PPTA:1,2015-07-05T13:30:00Z,30.2791,-87.5561,1.253,6.22,1111122 
DISL,ioos:station:DISL:PPTA:1,2015-07-05T14:00:00Z,30.2791,-87.5561,1.221,5.84,1111122 
DISL,ioos:station:DISL:PPTA:1,2015-07-05T14:30:00Z,30.2791,-87.5561,1.297,5.67,1111122 
DISL,ioos:station:DISL:PPTA:1,2015-07-05T15:00:00Z,30.2791,-87.5561,1.305,5.92,1111122 
DISL,ioos:station:DISL:PPTA:1,2015-07-05T15:30:00Z,30.2791,-87.5561,1.33,5.99,1111122 
DISL,ioos:station:DISL:PPTA:1,2015-07-05T16:00:00Z,30.2791,-87.5561,1.315,5.95,1111122 
DISL,ioos:station:DISL:PPTA:1,2015-07-05T16:30:00Z,30.2791,-87.5561,1.349,6.07,1111122 
DISL,ioos:station:DISL:PPTA:1,2015-07-05T17:00:00Z,30.2791,-87.5561,1.343,5.82,1111122 
DISL,ioos:station:DISL:PPTA:1,2015-07-05T17:30:00Z,30.2791,-87.5561,1.315,5.78,1111122 
DISL,ioos:station:DISL:PPTA:1,2015-07-05T18:00:00Z,30.2791,-87.5561,1.341,6.08,1111122 
DISL,ioos:station:DISL:PPTA:1,2015-07-05T18:30:00Z,30.2791,-87.5561,1.32,6.12,1111122 
DISL,ioos:station:DISL:PPTA:1,2015-07-05T19:00:00Z,30.2791,-87.5561,1.294,5.66,1111122 
DISL,ioos:station:DISL:PPTA:1,2015-07-05T19:30:00Z,30.2791,-87.5561,1.276,5.61,1111122 
DISL,ioos:station:DISL:PPTA:1,2015-07-05T20:00:00Z,30.2791,-87.5561,1.292,6.29,1111122 
DISL,ioos:station:DISL:PPTA:1,2015-07-05T20:30:00Z,30.2791,-87.5561,1.259,5.79,1111122 
DISL,ioos:station:DISL:PPTA:1,2015-07-05T21:00:00Z,30.2791,-87.5561,1.297,5.74,1111122 
DISL,ioos:station:DISL:PPTA:1,2015-07-05T21:30:00Z,30.2791,-87.5561,1.182,5.92,1111122 
DISL,ioos:station:DISL:PPTA:1,2015-07-05T22:00:00Z,30.2791,-87.5561,1.277,5.99,1111122 
DISL,ioos:station:DISL:PPTA:1,2015-07-05T22:30:00Z,30.2791,-87.5561,1.094,5.7,1111122 
DISL,ioos:station:DISL:PPTA:1,2015-07-05T23:00:00Z,30.2791,-87.5561,1.136,5.64,1111122 
DISL,ioos:station:DISL:PPTA:1,2015-07-05T23:30:00Z,30.2791,-87.5561,1.215,6.41,1111122 
DISL,ioos:station:DISL:PPTA:1,2015-07-06T00:00:00Z,30.2791,-87.5561,1.109,6.21,1111122 
DISL,ioos:station:DISL:PPTA:1,2015-07-06T00:30:00Z,30.2791,-87.5561,1.092,5.94,1111122 
DISL,ioos:station:DISL:PPTA:1,2015-07-06T01:00:00Z,30.2791,-87.5561,1.091,6.19,1111122 
DISL,ioos:station:DISL:PPTA:1,2015-07-06T01:30:00Z,30.2791,-87.5561,1.059,6.25,1111122 
DISL,ioos:station:DISL:PPTA:1,2015-07-06T02:00:00Z,30.2791,-87.5561,1.127,5.65,1111122 
DISL,ioos:station:DISL:PPTA:1,2015-07-06T02:30:00Z,30.2791,-87.5561,1.114,5.49,1111122 
DISL,ioos:station:DISL:PPTA:1,2015-07-06T03:00:00Z,30.2791,-87.5561,1.077,5.53,1111122 
DISL,ioos:station:DISL:PPTA:1,2015-07-06T03:30:00Z,30.2791,-87.5561,1.099,5.87,1111122 
DISL,ioos:station:DISL:PPTA:1,2015-07-06T04:00:00Z,30.2791,-87.5561,1.076,5.77,1111122 
DISL,ioos:station:DISL:PPTA:1,2015-07-06T04:30:00Z,30.2791,-87.5561,0.965,5.17,1111122 
DISL,ioos:station:DISL:PPTA:1,2015-07-06T05:00:00Z,30.2791,-87.5561,1.081,5.78,1111122 
DISL,ioos:station:DISL:PPTA:1,2015-07-06T05:30:00Z,30.2791,-87.5561,1.187,5.9,1111122 
DISL,ioos:station:DISL:PPTA:1,2015-07-06T06:00:00Z,30.2791,-87.5561,1.161,5.9,1111122 
DISL,ioos:station:DISL:PPTA:1,2015-07-06T06:30:00Z,30.2791,-87.5561,1.133,5.1,1111122 
DISL,ioos:station:DISL:PPTA:1,2015-07-06T07:00:00Z,30.2791,-87.5561,1.086,4.92,1111122 
DISL,ioos:station:DISL:PPTA:1,2015-07-06T07:30:00Z,30.2791,-87.5561,1.046,5.37,1111122 
DISL,ioos:station:DISL:PPTA:1,2015-07-06T08:00:00Z,30.2791,-87.5561,1.059,5.04,1111122 
DISL,ioos:station:DISL:PPTA:1,2015-07-06T08:30:00Z,30.2791,-87.5561,1.105,4.46,1111122 
DISL,ioos:station:DISL:PPTA:1,2015-07-06T09:00:00Z,30.2791,-87.5561,1.135,4.32,1111122 
DISL,ioos:station:DISL:PPTA:1,2015-07-06T09:30:00Z,30.2791,-87.5561,1.109,3.87,1111122 
DISL,ioos:station:DISL:PPTA:1,2015-07-06T10:00:00Z,30.2791,-87.5561,1.09,3.41,1111122 
DISL,ioos:station:DISL:PPTA:1,2015-07-06T10:30:00Z,30.2791,-87.5561,1.124,3.48,1111122 
DISL,ioos:station:DISL:PPTA:1,2015-07-06T11:00:00Z,30.2791,-87.5561,1.094,4.59,1111122 
DISL,ioos:station:DISL:PPTA:1,2015-07-06T11:30:00Z,30.2791,-87.5561,1.125,5.27,1111122 
DISL,ioos:station:DISL:PPTA:1,2015-07-06T12:00:00Z,30.2791,-87.5561,1.12,5.2,1111122 
DISL,ioos:station:DISL:PPTA:1,2015-07-06T12:30:00Z,30.2791,-87.5561,1.135,5.48,1111122 
DISL,ioos:station:DISL:PPTA:1,2015-07-06T13:00:00Z,30.2791,-87.5561,1.158,5.26,1111122 
DISL,ioos:station:DISL:PPTA:1,2015-07-06T13:30:00Z,30.2791,-87.5561,1.134,5.35,1111122 
DISL,ioos:station:DISL:PPTA:1,2015-07-06T14:00:00Z,30.2791,-87.5561,1.172,5.33,1111122 
DISL,ioos:station:DISL:PPTA:1,2015-07-06T14:30:00Z,30.2791,-87.5561,1.18,5.71,1111122 
DISL,ioos:station:DISL:PPTA:1,2015-07-06T15:00:00Z,30.2791,-87.5561,1.198,5.92,1111122 
DISL,ioos:station:DISL:PPTA:1,2015-07-06T15:30:00Z,30.2791,-87.5561,1.214,6.26,1111122 